Precipitable_Water
0.73 0.73 0.74 0.72 0.70 0.69 0.67 0.65 0.62 0.60 0.58 0.55 0.52 0.48 0.44 0.40 0.38 0.37 0.37 0.36 0.35 0.36 0.37 0.38 0.38 0.38 0.37 0.36 0.35 0.32 0.31 0.23 0.21 0.19 0.19 0.20 0.21 0.21 0.20 0.21 0.22 0.24 0.24 0.21 0.21 0.22 0.21 0.22 0.21 0.27 0.27 0.27 0.26 0.26 0.31 0.34 0.35 0.34 0.26 0.23 0.19 0.20 0.21 0.24 0.21 0.19 0.21 0.20 0.23 0.25 0.27 0.24 0.19 0.23 0.27 0.29 0.25 0.25 0.25 0.25 0.30 0.31 0.29 0.30 0.31 0.31 0.32 0.33
0.69 0.67 0.67 0.68 0.66 0.63 0.60 0.57 0.56 0.54 0.51 0.48 0.43 0.40 0.38 0.35 0.33 0.34 0.35 0.37 0.37 0.37 0.37 0.37 0.37 0.37 0.37 0.36 0.35 0.34 0.29 0.24 0.22 0.20 0.19 0.23 0.25 0.22 0.22 0.22 0.24 0.24 0.21 0.17 0.19 0.20 0.19 0.18 0.19 0.24 0.22 0.21 0.25 0.21 0.28 0.26 0.32 0.26 0.23 0.20 0.15 0.20 0.21 0.24 0.21 0.21 0.20 0.19 0.22 0.23 0.25 0.23 0.20 0.21 0.25 0.19 0.17 0.19 0.18 0.21 0.25 0.24 0.26 0.29 0.30 0.31 0.31 0.32
0.60 0.56 0.55 0.58 0.59 0.55 0.52 0.52 0.51 0.49 0.46 0.41 0.36 0.35 0.34 0.32 0.30 0.30 0.32 0.35 0.35 0.34 0.35 0.35 0.34 0.35 0.35 0.35 0.34 0.34 0.27 0.26 0.24 0.21 0.26 0.28 0.25 0.24 0.23 0.24 0.24 0.24 0.19 0.16 0.20 0.21 0.20 0.19 0.20 0.19 0.19 0.17 0.19 0.19 0.23 0.22 0.24 0.24 0.20 0.15 0.15 0.19 0.18 0.19 0.20 0.20 0.21 0.22 0.21 0.21 0.22 0.22 0.21 0.21 0.23 0.16 0.15 0.17 0.15 0.14 0.18 0.20 0.19 0.23 0.27 0.29 0.30 0.30
0.48 0.46 0.45 0.49 0.52 0.52 0.49 0.48 0.48 0.46 0.43 0.38 0.35 0.33 0.32 0.30 0.29 0.28 0.29 0.31 0.33 0.33 0.33 0.32 0.32 0.33 0.33 0.33 0.34 0.32 0.28 0.21 0.20 0.25 0.27 0.27 0.24 0.24 0.24 0.25 0.24 0.24 0.23 0.21 0.22 0.22 0.23 0.22 0.20 0.18 0.17 0.16 0.18 0.19 0.18 0.20 0.17 0.21 0.18 0.14 0.15 0.19 0.15 0.16 0.19 0.21 0.22 0.23 0.20 0.20 0.21 0.20 0.20 0.20 0.18 0.16 0.14 0.14 0.15 0.17 0.16 0.16 0.18 0.21 0.25 0.27 0.28 0.28
0.41 0.41 0.42 0.46 0.49 0.50 0.47 0.46 0.45 0.44 0.40 0.38 0.35 0.33 0.31 0.30 0.29 0.29 0.30 0.30 0.31 0.31 0.31 0.31 0.30 0.31 0.31 0.31 0.30 0.31 0.23 0.16 0.23 0.25 0.26 0.24 0.23 0.24 0.26 0.27 0.27 0.24 0.22 0.22 0.21 0.21 0.21 0.19 0.19 0.18 0.16 0.14 0.16 0.17 0.17 0.19 0.19 0.18 0.14 0.17 0.17 0.17 0.14 0.16 0.17 0.19 0.19 0.20 0.19 0.18 0.17 0.16 0.20 0.18 0.17 0.16 0.12 0.11 0.13 0.15 0.18 0.18 0.19 0.21 0.23 0.26 0.28 0.28
0.45 0.45 0.45 0.49 0.49 0.47 0.45 0.43 0.43 0.41 0.39 0.38 0.37 0.35 0.33 0.30 0.30 0.32 0.32 0.32 0.32 0.32 0.31 0.31 0.32 0.30 0.31 0.30 0.27 0.25 0.18 0.12 0.27 0.26 0.29 0.27 0.24 0.23 0.25 0.27 0.28 0.26 0.24 0.19 0.18 0.18 0.17 0.18 0.17 0.14 0.14 0.14 0.14 0.14 0.17 0.18 0.19 0.12 0.14 0.14 0.16 0.16 0.14 0.16 0.16 0.16 0.16 0.15 0.15 0.14 0.15 0.16 0.15 0.14 0.16 0.16 0.14 0.14 0.17 0.18 0.19 0.19 0.21 0.23 0.26 0.27 0.27 0.28
0.50 0.52 0.52 0.51 0.48 0.44 0.42 0.42 0.40 0.39 0.39 0.38 0.37 0.36 0.33 0.31 0.31 0.33 0.33 0.33 0.33 0.33 0.32 0.32 0.33 0.32 0.29 0.29 0.31 0.21 0.16 0.18 0.26 0.31 0.30 0.28 0.26 0.25 0.26 0.27 0.29 0.25 0.22 0.17 0.18 0.17 0.18 0.17 0.16 0.14 0.14 0.13 0.14 0.15 0.17 0.17 0.19 0.15 0.12 0.15 0.14 0.15 0.13 0.15 0.14 0.15 0.16 0.15 0.14 0.14 0.16 0.13 0.14 0.12 0.16 0.15 0.16 0.17 0.19 0.22 0.21 0.22 0.24 0.25 0.24 0.26 0.25 0.26
0.53 0.53 0.51 0.48 0.44 0.41 0.40 0.39 0.39 0.40 0.40 0.38 0.37 0.36 0.35 0.33 0.32 0.33 0.33 0.34 0.33 0.33 0.33 0.33 0.34 0.32 0.30 0.24 0.19 0.18 0.17 0.18 0.27 0.30 0.28 0.27 0.25 0.25 0.25 0.25 0.25 0.25 0.21 0.18 0.18 0.18 0.18 0.16 0.15 0.16 0.14 0.12 0.15 0.15 0.18 0.17 0.17 0.14 0.13 0.15 0.14 0.14 0.14 0.14 0.15 0.15 0.15 0.16 0.16 0.15 0.13 0.13 0.15 0.15 0.16 0.14 0.15 0.17 0.19 0.21 0.24 0.24 0.24 0.24 0.23 0.24 0.26 0.27
0.51 0.50 0.47 0.43 0.40 0.40 0.39 0.39 0.40 0.40 0.39 0.37 0.36 0.35 0.35 0.33 0.32 0.32 0.33 0.34 0.33 0.32 0.33 0.35 0.33 0.31 0.31 0.24 0.20 0.15 0.16 0.24 0.26 0.27 0.26 0.23 0.22 0.22 0.24 0.21 0.24 0.22 0.21 0.20 0.20 0.20 0.18 0.16 0.17 0.17 0.13 0.14 0.18 0.16 0.18 0.16 0.13 0.16 0.15 0.16 0.15 0.14 0.15 0.16 0.16 0.16 0.17 0.16 0.16 0.14 0.13 0.14 0.15 0.17 0.14 0.14 0.15 0.17 0.18 0.19 0.20 0.22 0.22 0.22 0.23 0.24 0.25 0.26
0.47 0.45 0.42 0.40 0.40 0.40 0.40 0.41 0.40 0.39 0.37 0.35 0.34 0.35 0.36 0.34 0.32 0.32 0.33 0.33 0.31 0.30 0.30 0.31 0.31 0.29 0.25 0.20 0.20 0.12 0.18 0.23 0.25 0.25 0.23 0.22 0.22 0.21 0.21 0.21 0.22 0.21 0.19 0.20 0.19 0.18 0.16 0.16 0.17 0.19 0.18 0.16 0.19 0.16 0.19 0.18 0.14 0.19 0.16 0.16 0.15 0.15 0.15 0.16 0.15 0.15 0.16 0.15 0.15 0.13 0.13 0.13 0.16 0.14 0.11 0.15 0.17 0.19 0.19 0.19 0.20 0.21 0.20 0.21 0.22 0.24 0.25 0.26
0.43 0.42 0.41 0.40 0.40 0.40 0.41 0.39 0.38 0.37 0.35 0.34 0.35 0.36 0.37 0.36 0.34 0.33 0.34 0.33 0.31 0.29 0.30 0.30 0.29 0.25 0.19 0.19 0.14 0.11 0.23 0.24 0.25 0.24 0.23 0.23 0.21 0.19 0.19 0.21 0.22 0.20 0.20 0.20 0.20 0.20 0.20 0.19 0.21 0.20 0.18 0.15 0.18 0.17 0.18 0.19 0.22 0.20 0.19 0.17 0.16 0.17 0.17 0.17 0.16 0.15 0.15 0.14 0.15 0.15 0.14 0.15 0.16 0.16 0.13 0.15 0.18 0.19 0.18 0.18 0.20 0.20 0.21 0.21 0.22 0.24 0.26 0.27
0.39 0.40 0.40 0.40 0.40 0.40 0.39 0.40 0.38 0.36 0.36 0.35 0.36 0.36 0.37 0.37 0.36 0.34 0.34 0.33 0.31 0.30 0.32 0.33 0.29 0.26 0.24 0.20 0.16 0.16 0.26 0.26 0.25 0.23 0.23 0.22 0.19 0.20 0.21 0.22 0.22 0.21 0.21 0.18 0.20 0.22 0.23 0.21 0.21 0.18 0.13 0.26 0.15 0.20 0.18 0.23 0.21 0.20 0.20 0.15 0.15 0.16 0.14 0.15 0.14 0.15 0.15 0.14 0.17 0.17 0.16 0.14 0.15 0.13 0.16 0.17 0.19 0.19 0.18 0.18 0.19 0.20 0.22 0.22 0.24 0.25 0.26 0.26
0.39 0.39 0.38 0.37 0.38 0.39 0.39 0.39 0.38 0.37 0.37 0.36 0.35 0.36 0.37 0.38 0.39 0.37 0.35 0.33 0.32 0.31 0.32 0.32 0.29 0.29 0.24 0.18 0.22 0.28 0.29 0.30 0.28 0.25 0.24 0.24 0.21 0.22 0.23 0.23 0.23 0.23 0.22 0.20 0.19 0.21 0.23 0.22 0.20 0.16 0.20 0.18 0.18 0.15 0.24 0.25 0.21 0.20 0.17 0.14 0.13 0.13 0.13 0.16 0.18 0.17 0.16 0.17 0.19 0.20 0.12 0.12 0.14 0.16 0.18 0.19 0.19 0.19 0.18 0.18 0.19 0.20 0.21 0.23 0.24 0.25 0.26 0.28
0.38 0.38 0.37 0.37 0.37 0.38 0.39 0.39 0.39 0.38 0.38 0.37 0.37 0.37 0.38 0.38 0.40 0.40 0.39 0.36 0.35 0.34 0.34 0.34 0.30 0.28 0.25 0.20 0.27 0.29 0.31 0.33 0.31 0.28 0.26 0.27 0.22 0.22 0.25 0.25 0.25 0.24 0.25 0.23 0.23 0.24 0.23 0.25 0.23 0.20 0.25 0.18 0.15 0.26 0.19 0.19 0.20 0.15 0.17 0.18 0.14 0.13 0.12 0.18 0.19 0.20 0.18 0.21 0.21 0.20 0.12 0.12 0.13 0.17 0.18 0.19 0.19 0.19 0.18 0.18 0.18 0.19 0.20 0.22 0.24 0.25 0.26 0.28
0.36 0.35 0.35 0.35 0.35 0.34 0.34 0.35 0.35 0.37 0.38 0.36 0.36 0.37 0.37 0.37 0.38 0.40 0.41 0.40 0.39 0.37 0.35 0.38 0.33 0.29 0.23 0.24 0.29 0.31 0.32 0.30 0.26 0.25 0.29 0.27 0.25 0.22 0.24 0.25 0.23 0.24 0.24 0.24 0.23 0.25 0.26 0.25 0.22 0.17 0.15 0.23 0.22 0.16 0.14 0.16 0.17 0.16 0.13 0.12 0.16 0.14 0.14 0.19 0.20 0.20 0.17 0.19 0.21 0.18 0.12 0.12 0.14 0.15 0.18 0.20 0.20 0.20 0.18 0.19 0.19 0.20 0.21 0.22 0.23 0.25 0.26 0.28
0.38 0.36 0.34 0.33 0.32 0.32 0.32 0.31 0.31 0.32 0.34 0.36 0.36 0.36 0.37 0.43 0.40 0.42 0.43 0.40 0.40 0.38 0.40 0.33 0.43 0.35 0.25 0.20 0.25 0.33 0.30 0.24 0.22 0.25 0.27 0.27 0.26 0.23 0.25 0.24 0.24 0.24 0.23 0.22 0.24 0.24 0.24 0.25 0.19 0.19 0.19 0.19 0.16 0.14 0.13 0.13 0.13 0.17 0.14 0.12 0.12 0.15 0.15 0.15 0.18 0.19 0.20 0.18 0.19 0.17 0.12 0.13 0.13 0.16 0.18 0.20 0.20 0.20 0.19 0.19 0.20 0.20 0.21 0.23 0.23 0.24 0.26 0.28
0.40 0.39 0.36 0.34 0.33 0.32 0.32 0.32 0.31 0.31 0.31 0.32 0.35 0.37 0.43 0.48 0.45 0.45 0.41 0.38 0.36 0.39 0.31 0.26 0.36 0.34 0.20 0.26 0.30 0.28 0.26 0.26 0.25 0.24 0.23 0.27 0.26 0.25 0.24 0.21 0.21 0.22 0.24 0.24 0.23 0.22 0.22 0.19 0.23 0.19 0.22 0.17 0.19 0.16 0.12 0.11 0.12 0.13 0.17 0.13 0.14 0.12 0.14 0.12 0.17 0.19 0.18 0.17 0.15 0.17 0.14 0.13 0.14 0.16 0.18 0.21 0.22 0.21 0.19 0.19 0.20 0.21 0.22 0.23 0.24 0.25 0.26 0.27
0.43 0.42 0.41 0.38 0.36 0.35 0.34 0.33 0.32 0.31 0.31 0.31 0.34 0.38 0.43 0.49 0.44 0.37 0.38 0.39 0.38 0.34 0.33 0.40 0.33 0.24 0.19 0.27 0.21 0.22 0.26 0.24 0.23 0.23 0.25 0.27 0.27 0.25 0.23 0.20 0.20 0.21 0.21 0.20 0.23 0.19 0.21 0.17 0.21 0.14 0.17 0.17 0.17 0.15 0.12 0.09 0.12 0.12 0.13 0.13 0.13 0.15 0.15 0.13 0.12 0.17 0.17 0.16 0.14 0.14 0.14 0.13 0.15 0.18 0.19 0.21 0.22 0.20 0.19 0.20 0.21 0.21 0.22 0.23 0.24 0.25 0.27 0.27
0.44 0.43 0.42 0.40 0.38 0.36 0.36 0.37 0.35 0.34 0.32 0.33 0.37 0.41 0.48 0.41 0.35 0.37 0.32 0.31 0.21 0.21 0.17 0.19 0.20 0.13 0.11 0.20 0.24 0.23 0.23 0.23 0.25 0.24 0.23 0.25 0.27 0.27 0.25 0.24 0.21 0.19 0.17 0.16 0.18 0.19 0.21 0.18 0.19 0.16 0.13 0.14 0.14 0.15 0.15 0.15 0.17 0.15 0.16 0.15 0.15 0.13 0.13 0.12 0.15 0.18 0.16 0.14 0.13 0.14 0.13 0.15 0.17 0.18 0.20 0.21 0.20 0.20 0.20 0.21 0.22 0.22 0.23 0.24 0.25 0.26 0.27 0.27
0.45 0.44 0.43 0.43 0.41 0.39 0.38 0.38 0.38 0.38 0.38 0.32 0.30 0.29 0.32 0.18 0.20 0.21 0.28 0.20 0.18 0.16 0.17 0.19 0.22 0.22 0.20 0.19 0.18 0.22 0.25 0.26 0.20 0.23 0.25 0.28 0.25 0.24 0.22 0.22 0.20 0.20 0.16 0.14 0.17 0.19 0.21 0.15 0.13 0.13 0.15 0.16 0.17 0.18 0.18 0.19 0.21 0.20 0.18 0.16 0.15 0.14 0.13 0.14 0.14 0.17 0.19 0.16 0.14 0.15 0.17 0.17 0.18 0.19 0.19 0.20 0.21 0.21 0.21 0.20 0.21 0.22 0.23 0.24 0.25 0.26 0.27 0.28
0.44 0.45 0.44 0.44 0.43 0.40 0.39 0.40 0.40 0.42 0.43 0.39 0.30 0.18 0.13 0.15 0.13 0.12 0.16 0.17 0.21 0.21 0.20 0.23 0.22 0.19 0.17 0.19 0.21 0.20 0.17 0.19 0.22 0.22 0.24 0.29 0.27 0.22 0.20 0.20 0.18 0.16 0.17 0.19 0.17 0.23 0.22 0.15 0.13 0.16 0.18 0.18 0.19 0.20 0.20 0.19 0.19 0.17 0.15 0.14 0.13 0.13 0.10 0.13 0.14 0.19 0.21 0.16 0.15 0.18 0.18 0.17 0.18 0.19 0.20 0.21 0.20 0.20 0.20 0.21 0.22 0.23 0.25 0.26 0.26 0.26 0.27 0.28
0.44 0.43 0.43 0.43 0.43 0.42 0.41 0.42 0.44 0.44 0.45 0.41 0.29 0.21 0.21 0.21 0.25 0.29 0.20 0.11 0.16 0.23 0.26 0.25 0.26 0.22 0.25 0.23 0.25 0.26 0.23 0.19 0.20 0.22 0.27 0.27 0.24 0.18 0.20 0.19 0.17 0.15 0.20 0.19 0.19 0.17 0.14 0.12 0.13 0.19 0.21 0.21 0.20 0.21 0.21 0.19 0.17 0.17 0.15 0.14 0.12 0.12 0.14 0.15 0.17 0.20 0.21 0.18 0.16 0.18 0.16 0.17 0.18 0.19 0.20 0.20 0.21 0.22 0.23 0.24 0.24 0.25 0.25 0.26 0.26 0.27 0.27 0.26
0.43 0.43 0.42 0.42 0.41 0.41 0.43 0.43 0.46 0.45 0.39 0.32 0.28 0.30 0.25 0.33 0.36 0.36 0.29 0.17 0.15 0.27 0.26 0.24 0.21 0.21 0.22 0.25 0.26 0.27 0.19 0.18 0.16 0.20 0.24 0.26 0.23 0.22 0.21 0.18 0.15 0.15 0.15 0.16 0.12 0.13 0.11 0.13 0.19 0.22 0.21 0.20 0.19 0.19 0.18 0.18 0.18 0.15 0.14 0.12 0.10 0.13 0.12 0.10 0.16 0.19 0.21 0.18 0.15 0.16 0.15 0.17 0.19 0.19 0.20 0.23 0.23 0.24 0.26 0.26 0.26 0.27 0.26 0.25 0.25 0.25 0.25 0.24
0.44 0.44 0.44 0.43 0.42 0.42 0.44 0.45 0.48 0.46 0.40 0.36 0.33 0.32 0.40 0.41 0.38 0.35 0.22 0.11 0.11 0.23 0.26 0.26 0.23 0.23 0.21 0.20 0.24 0.22 0.19 0.18 0.18 0.19 0.28 0.23 0.18 0.24 0.19 0.19 0.17 0.17 0.15 0.16 0.15 0.13 0.12 0.16 0.20 0.21 0.20 0.20 0.18 0.19 0.17 0.15 0.13 0.15 0.14 0.13 0.12 0.13 0.14 0.14 0.15 0.17 0.18 0.18 0.19 0.17 0.15 0.14 0.17 0.17 0.19 0.22 0.24 0.24 0.25 0.26 0.26 0.27 0.26 0.26 0.26 0.25 0.25 0.25
0.45 0.45 0.45 0.44 0.43 0.45 0.46 0.49 0.43 0.40 0.46 0.44 0.36 0.43 0.45 0.44 0.41 0.40 0.18 0.12 0.20 0.24 0.31 0.32 0.24 0.25 0.22 0.29 0.27 0.19 0.19 0.19 0.23 0.25 0.24 0.21 0.18 0.18 0.17 0.24 0.19 0.15 0.17 0.21 0.19 0.17 0.16 0.20 0.22 0.20 0.19 0.19 0.17 0.15 0.15 0.15 0.12 0.13 0.15 0.15 0.15 0.16 0.14 0.15 0.16 0.14 0.12 0.11 0.16 0.15 0.09 0.11 0.16 0.18 0.19 0.21 0.22 0.21 0.23 0.23 0.22 0.23 0.24 0.24 0.24 0.24 0.25 0.26
0.47 0.46 0.45 0.43 0.44 0.45 0.49 0.41 0.36 0.44 0.40 0.35 0.36 0.43 0.45 0.41 0.46 0.38 0.23 0.12 0.10 0.18 0.22 0.15 0.23 0.21 0.27 0.21 0.22 0.21 0.20 0.16 0.24 0.22 0.23 0.24 0.27 0.19 0.18 0.15 0.19 0.13 0.17 0.17 0.16 0.16 0.16 0.20 0.20 0.18 0.18 0.17 0.17 0.16 0.17 0.17 0.13 0.12 0.12 0.18 0.16 0.16 0.15 0.15 0.13 0.12 0.09 0.08 0.14 0.17 0.10 0.09 0.16 0.17 0.19 0.21 0.21 0.20 0.21 0.21 0.22 0.23 0.24 0.25 0.25 0.25 0.25 0.25
0.49 0.47 0.45 0.43 0.46 0.47 0.32 0.29 0.41 0.45 0.30 0.33 0.43 0.43 0.43 0.42 0.46 0.40 0.20 0.11 0.10 0.19 0.15 0.20 0.19 0.21 0.24 0.21 0.20 0.21 0.08 0.12 0.22 0.24 0.24 0.25 0.19 0.29 0.13 0.13 0.17 0.20 0.22 0.23 0.15 0.12 0.20 0.20 0.20 0.19 0.18 0.17 0.16 0.14 0.17 0.17 0.14 0.11 0.18 0.18 0.17 0.16 0.14 0.13 0.13 0.13 0.11 0.15 0.16 0.16 0.15 0.11 0.12 0.17 0.20 0.21 0.20 0.20 0.20 0.21 0.22 0.23 0.25 0.26 0.26 0.26 0.26 0.27
0.49 0.48 0.45 0.45 0.49 0.47 0.35 0.38 0.38 0.33 0.29 0.37 0.45 0.42 0.42 0.45 0.41 0.40 0.19 0.07 0.06 0.23 0.13 0.17 0.19 0.25 0.22 0.21 0.22 0.16 0.15 0.21 0.12 0.26 0.26 0.23 0.26 0.22 0.17 0.13 0.14 0.15 0.18 0.17 0.09 0.16 0.20 0.17 0.18 0.17 0.18 0.16 0.14 0.16 0.18 0.19 0.14 0.14 0.18 0.19 0.16 0.15 0.15 0.15 0.14 0.13 0.14 0.13 0.10 0.14 0.17 0.12 0.12 0.17 0.22 0.22 0.18 0.19 0.20 0.21 0.23 0.24 0.26 0.26 0.26 0.27 0.27 0.28
0.49 0.48 0.46 0.44 0.50 0.49 0.44 0.39 0.39 0.30 0.38 0.41 0.41 0.40 0.41 0.41 0.32 0.21 0.12 0.06 0.23 0.15 0.31 0.17 0.32 0.22 0.20 0.19 0.17 0.20 0.18 0.22 0.12 0.18 0.25 0.27 0.27 0.22 0.14 0.19 0.20 0.19 0.21 0.20 0.13 0.14 0.19 0.20 0.21 0.20 0.16 0.14 0.17 0.18 0.18 0.18 0.14 0.17 0.20 0.19 0.18 0.17 0.16 0.15 0.14 0.14 0.14 0.12 0.09 0.13 0.16 0.11 0.12 0.17 0.19 0.21 0.19 0.19 0.20 0.23 0.24 0.25 0.26 0.27 0.27 0.27 0.28 0.28
0.49 0.46 0.45 0.44 0.46 0.38 0.41 0.49 0.34 0.38 0.43 0.41 0.40 0.40 0.42 0.36 0.29 0.14 0.08 0.06 0.18 0.09 0.18 0.18 0.18 0.12 0.17 0.13 0.14 0.17 0.15 0.18 0.20 0.21 0.23 0.19 0.22 0.25 0.22 0.26 0.20 0.16 0.14 0.19 0.17 0.18 0.21 0.23 0.24 0.18 0.17 0.18 0.19 0.19 0.19 0.19 0.18 0.20 0.18 0.15 0.15 0.15 0.15 0.17 0.16 0.14 0.13 0.09 0.11 0.15 0.16 0.14 0.10 0.15 0.18 0.18 0.19 0.21 0.23 0.24 0.25 0.26 0.27 0.27 0.27 0.27 0.28 0.28
0.47 0.45 0.45 0.45 0.34 0.38 0.40 0.34 0.35 0.42 0.40 0.40 0.41 0.38 0.34 0.29 0.15 0.10 0.07 0.11 0.18 0.16 0.18 0.19 0.12 0.19 0.13 0.12 0.11 0.15 0.16 0.16 0.16 0.18 0.13 0.19 0.17 0.20 0.17 0.19 0.18 0.13 0.14 0.14 0.14 0.15 0.17 0.19 0.20 0.22 0.24 0.22 0.21 0.17 0.21 0.21 0.20 0.18 0.15 0.12 0.12 0.12 0.15 0.13 0.13 0.14 0.09 0.07 0.13 0.16 0.16 0.17 0.10 0.14 0.19 0.22 0.24 0.24 0.24 0.24 0.25 0.26 0.26 0.26 0.27 0.27 0.28 0.29
0.45 0.45 0.46 0.40 0.41 0.48 0.29 0.27 0.35 0.41 0.38 0.39 0.36 0.27 0.25 0.12 0.17 0.09 0.08 0.22 0.09 0.13 0.13 0.12 0.15 0.13 0.14 0.18 0.14 0.12 0.12 0.15 0.15 0.15 0.12 0.14 0.13 0.12 0.12 0.09 0.12 0.07 0.07 0.09 0.08 0.12 0.13 0.18 0.21 0.23 0.24 0.19 0.17 0.14 0.15 0.18 0.18 0.15 0.13 0.12 0.09 0.08 0.08 0.06 0.10 0.07 0.08 0.08 0.13 0.16 0.17 0.13 0.14 0.18 0.21 0.23 0.24 0.25 0.26 0.26 0.26 0.26 0.26 0.26 0.27 0.28 0.29 0.30
0.44 0.44 0.46 0.43 0.42 0.36 0.36 0.39 0.41 0.37 0.37 0.37 0.31 0.27 0.16 0.10 0.08 0.12 0.11 0.13 0.09 0.15 0.11 0.16 0.12 0.12 0.15 0.15 0.11 0.13 0.16 0.09 0.14 0.13 0.15 0.17 0.13 0.13 0.14 0.13 0.15 0.12 0.06 0.10 0.09 0.10 0.09 0.17 0.20 0.20 0.19 0.20 0.17 0.11 0.11 0.11 0.14 0.12 0.11 0.11 0.08 0.06 0.06 0.06 0.07 0.09 0.10 0.14 0.16 0.15 0.17 0.13 0.18 0.20 0.23 0.23 0.25 0.27 0.27 0.28 0.27 0.26 0.26 0.27 0.28 0.30 0.31 0.31
0.44 0.45 0.41 0.43 0.39 0.40 0.40 0.39 0.37 0.35 0.31 0.32 0.27 0.18 0.12 0.08 0.08 0.13 0.11 0.12 0.10 0.17 0.15 0.12 0.11 0.14 0.15 0.10 0.11 0.12 0.07 0.11 0.11 0.10 0.14 0.12 0.12 0.10 0.12 0.14 0.15 0.12 0.12 0.11 0.09 0.09 0.06 0.07 0.15 0.16 0.12 0.17 0.16 0.16 0.14 0.12 0.12 0.12 0.15 0.13 0.10 0.09 0.08 0.06 0.08 0.07 0.08 0.10 0.13 0.17 0.14 0.13 0.14 0.17 0.25 0.24 0.25 0.26 0.26 0.26 0.27 0.29 0.29 0.30 0.30 0.31 0.31 0.31
0.44 0.49 0.46 0.45 0.42 0.43 0.39 0.36 0.35 0.35 0.30 0.26 0.17 0.11 0.07 0.07 0.10 0.09 0.09 0.11 0.12 0.12 0.09 0.12 0.11 0.11 0.11 0.11 0.13 0.12 0.10 0.07 0.11 0.09 0.10 0.10 0.09 0.11 0.11 0.12 0.15 0.15 0.15 0.08 0.11 0.09 0.09 0.08 0.14 0.18 0.15 0.17 0.16 0.19 0.18 0.15 0.13 0.16 0.17 0.16 0.13 0.12 0.15 0.10 0.11 0.11 0.11 0.11 0.12 0.14 0.14 0.19 0.18 0.24 0.25 0.24 0.24 0.25 0.27 0.28 0.29 0.29 0.30 0.30 0.30 0.31 0.31 0.31
0.43 0.43 0.49 0.39 0.36 0.36 0.35 0.34 0.33 0.32 0.26 0.19 0.12 0.09 0.08 0.09 0.07 0.11 0.09 0.15 0.13 0.08 0.08 0.09 0.12 0.08 0.08 0.09 0.11 0.09 0.15 0.09 0.10 0.09 0.11 0.12 0.14 0.13 0.16 0.15 0.14 0.16 0.12 0.08 0.10 0.08 0.09 0.07 0.16 0.14 0.17 0.17 0.17 0.18 0.17 0.19 0.10 0.14 0.15 0.13 0.15 0.19 0.16 0.13 0.14 0.15 0.15 0.13 0.10 0.16 0.15 0.18 0.23 0.24 0.24 0.25 0.26 0.26 0.28 0.28 0.29 0.29 0.30 0.30 0.30 0.31 0.30 0.31
0.37 0.44 0.35 0.34 0.30 0.31 0.31 0.32 0.30 0.27 0.25 0.15 0.10 0.06 0.09 0.11 0.11 0.11 0.14 0.10 0.10 0.12 0.10 0.05 0.07 0.07 0.06 0.06 0.07 0.08 0.10 0.11 0.11 0.10 0.08 0.15 0.12 0.17 0.16 0.16 0.19 0.17 0.16 0.12 0.09 0.14 0.08 0.08 0.12 0.14 0.14 0.19 0.20 0.19 0.20 0.22 0.22 0.18 0.14 0.17 0.20 0.22 0.19 0.15 0.10 0.11 0.10 0.08 0.10 0.15 0.14 0.16 0.17 0.15 0.24 0.25 0.25 0.27 0.28 0.28 0.29 0.30 0.30 0.30 0.30 0.30 0.28 0.29
0.37 0.35 0.34 0.26 0.23 0.29 0.30 0.31 0.30 0.26 0.19 0.12 0.08 0.08 0.15 0.09 0.17 0.13 0.16 0.12 0.13 0.13 0.08 0.08 0.08 0.10 0.07 0.08 0.07 0.09 0.11 0.08 0.08 0.10 0.08 0.13 0.09 0.22 0.16 0.15 0.20 0.17 0.17 0.19 0.11 0.12 0.14 0.08 0.11 0.15 0.17 0.19 0.20 0.22 0.20 0.22 0.25 0.19 0.17 0.23 0.15 0.11 0.10 0.15 0.12 0.08 0.09 0.09 0.11 0.15 0.17 0.18 0.19 0.20 0.24 0.24 0.25 0.26 0.27 0.28 0.29 0.29 0.29 0.28 0.28 0.27 0.26 0.28
0.34 0.27 0.21 0.20 0.27 0.28 0.28 0.31 0.29 0.20 0.13 0.07 0.07 0.07 0.12 0.11 0.16 0.12 0.15 0.15 0.17 0.12 0.09 0.10 0.08 0.10 0.10 0.09 0.10 0.11 0.11 0.08 0.10 0.10 0.08 0.12 0.09 0.17 0.15 0.17 0.15 0.18 0.19 0.19 0.14 0.15 0.17 0.10 0.11 0.17 0.17 0.18 0.18 0.18 0.12 0.16 0.21 0.21 0.22 0.18 0.21 0.16 0.13 0.12 0.14 0.15 0.14 0.12 0.13 0.13 0.17 0.16 0.22 0.23 0.25 0.25 0.27 0.27 0.27 0.27 0.27 0.26 0.26 0.26 0.26 0.25 0.24 0.26
0.19 0.15 0.14 0.22 0.27 0.29 0.29 0.32 0.16 0.12 0.08 0.05 0.08 0.08 0.13 0.11 0.14 0.17 0.17 0.17 0.12 0.11 0.11 0.10 0.12 0.09 0.11 0.11 0.12 0.10 0.12 0.11 0.11 0.11 0.12 0.13 0.12 0.20 0.15 0.19 0.15 0.16 0.19 0.20 0.17 0.20 0.14 0.17 0.10 0.15 0.18 0.17 0.12 0.16 0.13 0.15 0.13 0.14 0.15 0.15 0.17 0.18 0.21 0.19 0.19 0.17 0.15 0.14 0.14 0.14 0.14 0.18 0.23 0.27 0.26 0.26 0.27 0.27 0.25 0.24 0.24 0.24 0.25 0.25 0.25 0.23 0.24 0.26
0.20 0.16 0.15 0.24 0.27 0.30 0.34 0.18 0.10 0.08 0.08 0.11 0.12 0.10 0.13 0.09 0.14 0.16 0.18 0.19 0.17 0.22 0.13 0.12 0.12 0.10 0.11 0.11 0.11 0.14 0.11 0.12 0.13 0.12 0.13 0.14 0.14 0.10 0.19 0.17 0.20 0.16 0.20 0.20 0.18 0.19 0.14 0.15 0.11 0.12 0.12 0.12 0.12 0.17 0.17 0.16 0.17 0.16 0.16 0.17 0.18 0.17 0.16 0.14 0.14 0.21 0.20 0.18 0.16 0.16 0.16 0.20 0.25 0.29 0.28 0.26 0.25 0.24 0.23 0.22 0.22 0.23 0.24 0.25 0.23 0.22 0.24 0.25
0.11 0.07 0.10 0.23 0.27 0.28 0.20 0.10 0.10 0.12 0.07 0.06 0.08 0.11 0.10 0.20 0.15 0.14 0.17 0.19 0.19 0.14 0.21 0.15 0.17 0.14 0.14 0.13 0.14 0.13 0.13 0.12 0.14 0.13 0.14 0.12 0.16 0.14 0.17 0.23 0.22 0.23 0.18 0.15 0.16 0.20 0.18 0.16 0.13 0.10 0.11 0.11 0.13 0.18 0.20 0.22 0.23 0.22 0.21 0.19 0.22 0.21 0.20 0.18 0.14 0.17 0.21 0.21 0.23 0.21 0.18 0.19 0.26 0.26 0.25 0.23 0.23 0.22 0.22 0.23 0.23 0.24 0.24 0.23 0.21 0.22 0.23 0.22
0.11 0.10 0.19 0.24 0.24 0.20 0.15 0.08 0.11 0.09 0.09 0.12 0.19 0.18 0.19 0.16 0.14 0.17 0.15 0.18 0.14 0.17 0.17 0.17 0.15 0.14 0.17 0.14 0.14 0.12 0.14 0.11 0.13 0.12 0.13 0.14 0.15 0.18 0.20 0.22 0.24 0.21 0.21 0.18 0.19 0.19 0.19 0.12 0.10 0.10 0.12 0.15 0.19 0.22 0.23 0.25 0.25 0.22 0.23 0.24 0.23 0.21 0.22 0.21 0.20 0.22 0.20 0.20 0.19 0.18 0.15 0.17 0.22 0.23 0.23 0.22 0.22 0.22 0.22 0.23 0.23 0.23 0.23 0.21 0.19 0.20 0.19 0.17
0.14 0.15 0.14 0.20 0.22 0.19 0.08 0.06 0.07 0.09 0.12 0.16 0.16 0.14 0.20 0.16 0.16 0.14 0.15 0.17 0.15 0.14 0.14 0.15 0.18 0.18 0.13 0.17 0.15 0.12 0.16 0.10 0.15 0.14 0.13 0.16 0.16 0.24 0.22 0.21 0.23 0.18 0.17 0.15 0.13 0.19 0.11 0.13 0.12 0.10 0.12 0.14 0.17 0.20 0.21 0.24 0.23 0.21 0.22 0.24 0.26 0.26 0.25 0.25 0.24 0.24 0.19 0.18 0.17 0.14 0.10 0.13 0.19 0.22 0.21 0.21 0.21 0.21 0.21 0.22 0.23 0.21 0.20 0.17 0.16 0.16 0.15 0.15
0.15 0.23 0.16 0.18 0.19 0.14 0.09 0.13 0.11 0.10 0.11 0.11 0.11 0.11 0.13 0.17 0.19 0.18 0.17 0.16 0.19 0.18 0.16 0.16 0.16 0.17 0.15 0.17 0.15 0.18 0.19 0.15 0.13 0.17 0.16 0.17 0.17 0.23 0.21 0.21 0.23 0.18 0.21 0.21 0.21 0.24 0.15 0.15 0.15 0.12 0.11 0.10 0.10 0.11 0.12 0.16 0.20 0.23 0.26 0.26 0.26 0.25 0.23 0.21 0.17 0.19 0.14 0.15 0.15 0.12 0.12 0.16 0.19 0.20 0.19 0.20 0.20 0.20 0.21 0.21 0.20 0.18 0.16 0.13 0.13 0.14 0.14 0.13
0.13 0.08 0.12 0.15 0.18 0.16 0.17 0.20 0.15 0.13 0.12 0.12 0.11 0.13 0.15 0.13 0.18 0.20 0.21 0.19 0.19 0.19 0.19 0.18 0.18 0.20 0.16 0.17 0.15 0.15 0.15 0.19 0.15 0.14 0.15 0.14 0.16 0.18 0.20 0.21 0.21 0.20 0.22 0.23 0.24 0.23 0.18 0.20 0.19 0.17 0.14 0.13 0.15 0.18 0.23 0.26 0.24 0.22 0.24 0.24 0.23 0.23 0.21 0.20 0.19 0.15 0.12 0.13 0.11 0.13 0.13 0.14 0.15 0.17 0.17 0.18 0.18 0.17 0.16 0.15 0.15 0.14 0.13 0.12 0.13 0.13 0.12 0.12
0.18 0.12 0.13 0.11 0.15 0.14 0.13 0.16 0.15 0.14 0.12 0.15 0.10 0.13 0.12 0.14 0.15 0.18 0.24 0.14 0.20 0.18 0.18 0.19 0.17 0.15 0.16 0.16 0.14 0.14 0.16 0.14 0.17 0.15 0.14 0.14 0.15 0.17 0.22 0.22 0.23 0.24 0.25 0.24 0.26 0.23 0.19 0.16 0.19 0.19 0.20 0.21 0.23 0.24 0.25 0.26 0.22 0.22 0.21 0.19 0.19 0.17 0.18 0.16 0.14 0.11 0.14 0.12 0.09 0.14 0.15 0.13 0.13 0.16 0.17 0.17 0.16 0.15 0.15 0.14 0.14 0.13 0.11 0.11 0.12 0.12 0.12 0.11
0.12 0.17 0.18 0.18 0.14 0.11 0.11 0.12 0.18 0.16 0.17 0.16 0.13 0.17 0.14 0.14 0.14 0.13 0.18 0.19 0.21 0.21 0.14 0.19 0.18 0.19 0.18 0.16 0.16 0.12 0.13 0.13 0.15 0.13 0.15 0.16 0.16 0.18 0.18 0.23 0.23 0.25 0.25 0.23 0.25 0.21 0.19 0.17 0.21 0.23 0.22 0.24 0.25 0.25 0.25 0.23 0.21 0.19 0.18 0.16 0.15 0.16 0.16 0.14 0.14 0.15 0.15 0.12 0.11 0.14 0.15 0.14 0.15 0.16 0.16 0.16 0.15 0.14 0.14 0.13 0.13 0.12 0.11 0.11 0.11 0.10 0.10 0.10
0.19 0.19 0.17 0.22 0.14 0.15 0.14 0.15 0.19 0.18 0.15 0.16 0.15 0.15 0.14 0.14 0.13 0.16 0.16 0.15 0.18 0.17 0.18 0.12 0.15 0.17 0.17 0.19 0.17 0.13 0.15 0.11 0.11 0.15 0.15 0.15 0.16 0.17 0.17 0.19 0.24 0.25 0.24 0.23 0.25 0.26 0.23 0.22 0.24 0.25 0.22 0.23 0.24 0.23 0.22 0.19 0.17 0.16 0.15 0.15 0.16 0.16 0.15 0.15 0.15 0.16 0.16 0.15 0.16 0.15 0.15 0.14 0.15 0.15 0.15 0.15 0.15 0.14 0.13 0.13 0.12 0.10 0.10 0.10 0.10 0.10 0.09 0.08
0.14 0.16 0.13 0.20 0.19 0.16 0.16 0.17 0.17 0.17 0.14 0.16 0.13 0.15 0.16 0.15 0.14 0.15 0.19 0.16 0.12 0.15 0.20 0.15 0.15 0.17 0.18 0.19 0.18 0.15 0.17 0.18 0.16 0.14 0.17 0.17 0.17 0.18 0.17 0.19 0.20 0.25 0.27 0.25 0.27 0.28 0.24 0.21 0.25 0.23 0.21 0.20 0.21 0.20 0.18 0.17 0.15 0.14 0.14 0.16 0.16 0.16 0.15 0.16 0.16 0.17 0.17 0.15 0.15 0.14 0.13 0.12 0.15 0.15 0.14 0.15 0.15 0.14 0.13 0.11 0.09 0.09 0.10 0.09 0.09 0.08 0.07 0.06
0.22 0.23 0.21 0.16 0.16 0.16 0.17 0.17 0.16 0.16 0.14 0.15 0.14 0.15 0.16 0.16 0.14 0.17 0.17 0.20 0.17 0.15 0.17 0.16 0.17 0.17 0.20 0.19 0.19 0.19 0.22 0.20 0.19 0.19 0.20 0.20 0.16 0.22 0.20 0.22 0.27 0.24 0.26 0.26 0.27 0.26 0.25 0.21 0.24 0.22 0.17 0.16 0.17 0.16 0.15 0.15 0.14 0.13 0.14 0.15 0.15 0.15 0.14 0.15 0.15 0.16 0.14 0.12 0.13 0.12 0.10 0.10 0.12 0.15 0.15 0.15 0.14 0.12 0.10 0.09 0.07 0.09 0.09 0.09 0.08 0.08 0.06 0.06
0.27 0.27 0.28 0.21 0.16 0.18 0.15 0.18 0.17 0.17 0.13 0.16 0.16 0.16 0.15 0.15 0.18 0.19 0.15 0.21 0.21 0.21 0.21 0.20 0.19 0.19 0.18 0.19 0.18 0.19 0.21 0.22 0.22 0.23 0.25 0.26 0.28 0.29 0.31 0.30 0.29 0.26 0.25 0.25 0.27 0.24 0.24 0.21 0.19 0.18 0.13 0.13 0.15 0.15 0.13 0.12 0.12 0.11 0.13 0.14 0.14 0.15 0.16 0.16 0.17 0.16 0.15 0.15 0.12 0.09 0.09 0.13 0.13 0.14 0.13 0.12 0.12 0.10 0.09 0.08 0.07 0.09 0.09 0.09 0.08 0.07 0.06 0.06
Wind_Speed
5 5 5 5 6 6 6 6 6 7 7 7 7 8 8 9 9 9 9 8 8 8 8 9 9 10 10 10 10 10 10 9 9 9 10 10 10 11 12 12 12 12 11 11 11 11 11 11 12 12 11 11 12 12 13 13 12 12 12 13 14 15 14 14 14 14 13 13 14 15 15 15 16 16 16 16 16 17 17 18 18 18 18 19 19 18 17 16
5 6 6 6 6 6 6 7 7 7 7 7 7 8 8 9 9 9 9 8 8 8 9 9 10 10 10 10 10 10 9 9 9 9 10 10 11 12 13 12 12 12 12 11 12 11 11 12 12 12 12 12 13 13 13 13 13 12 13 14 15 15 15 15 15 14 13 14 15 16 16 16 17 16 16 17 18 18 18 18 18 18 19 18 18 17 16 16
6 6 6 6 6 6 6 6 6 7 7 7 7 8 9 9 9 9 9 9 9 9 9 10 10 10 10 10 10 9 9 9 10 10 11 11 12 13 13 13 12 12 12 12 13 12 13 13 13 13 13 13 14 13 13 13 14 14 13 14 16 16 15 16 16 15 15 15 15 16 17 17 18 17 16 17 18 17 18 19 18 19 21 19 18 17 16 16
6 6 6 5 5 5 6 6 6 7 7 7 8 8 9 9 9 9 9 9 9 9 9 9 10 10 10 10 10 9 9 9 10 10 11 12 12 13 13 13 12 12 12 13 13 13 14 14 13 13 13 14 14 14 14 14 14 14 14 15 16 15 15 17 17 16 16 16 16 17 16 17 18 17 17 16 17 18 19 20 19 20 21 19 19 18 17 17
6 6 5 5 5 5 6 6 6 7 7 8 8 9 9 9 9 9 8 8 9 9 9 9 10 10 10 10 10 10 9 9 10 10 11 12 12 13 13 13 13 13 13 13 14 14 14 14 14 14 13 14 14 13 15 15 14 14 15 16 16 14 15 17 17 17 17 17 17 16 16 17 17 17 17 16 17 18 19 19 20 20 20 18 18 18 18 18
6 6 6 6 5 5 6 6 6 6 7 8 8 9 9 9 9 8 8 9 9 9 10 10 10 10 10 10 10 10 9 10 11 11 12 13 13 13 13 13 13 13 13 13 14 14 14 14 14 14 14 14 15 14 15 15 14 15 16 16 16 16 16 16 16 17 17 17 17 17 17 17 16 17 18 18 19 20 19 19 18 19 18 17 17 18 18 19
6 6 6 5 5 5 5 5 6 6 7 8 8 8 8 9 9 8 9 9 9 10 10 11 11 11 11 11 10 10 10 12 12 12 13 13 14 14 13 13 13 14 13 13 14 14 14 14 15 15 14 14 15 15 15 15 14 15 16 16 16 17 17 17 16 17 17 17 18 17 17 17 17 18 17 18 22 22 21 19 18 18 17 17 17 18 19 20
5 5 4 4 4 4 5 5 6 7 7 8 8 8 8 9 9 9 9 10 10 10 11 11 11 11 11 11 10 11 11 12 13 13 14 14 14 14 13 13 14 14 14 14 14 14 14 14 15 14 14 15 15 15 15 15 15 15 16 16 15 16 17 17 17 17 17 18 18 17 17 18 18 17 18 20 22 22 21 20 19 18 18 18 19 20 20 21
4 4 3 3 3 4 5 6 6 7 7 8 8 8 8 9 9 9 10 10 11 11 11 11 12 12 11 11 10 11 12 12 13 14 14 15 15 14 14 14 14 14 14 14 15 14 15 14 14 14 14 15 15 15 15 14 16 15 16 16 15 16 17 17 17 17 18 17 16 17 18 18 18 18 18 21 22 20 19 19 19 19 19 20 21 21 22 22
5 4 4 4 4 5 5 6 7 7 7 8 8 8 8 9 9 10 10 11 11 11 11 11 12 12 11 11 10 11 12 12 13 14 14 14 14 14 14 14 14 14 14 15 14 14 15 15 15 14 15 15 15 15 14 14 15 15 15 16 16 17 17 17 17 18 17 17 17 17 18 18 18 17 17 20 19 18 18 19 19 19 20 22 22 23 23 23
5 5 4 5 5 5 6 6 7 7 8 8 8 9 9 10 10 11 11 11 12 12 12 11 12 12 11 11 11 12 13 12 13 14 14 14 13 14 14 15 14 14 14 15 15 15 15 16 16 15 14 14 14 15 15 15 15 15 15 16 17 17 18 17 17 18 16 16 17 17 18 18 17 16 18 20 19 18 20 20 20 20 21 22 23 23 23 23
5 5 5 5 5 6 6 7 7 8 8 9 9 10 10 11 11 12 12 12 12 12 12 12 12 12 12 12 12 13 13 13 14 13 13 14 13 14 14 14 14 14 14 14 15 15 15 15 15 15 15 14 14 14 15 15 15 15 14 15 17 16 17 17 16 17 16 16 17 16 18 18 16 18 20 20 19 20 22 22 21 21 22 23 22 22 23 23
5 5 5 5 6 6 7 8 8 9 10 10 10 11 11 12 12 13 13 13 13 13 12 12 12 12 12 13 13 13 13 14 14 13 14 14 14 14 14 14 14 14 13 13 14 15 14 14 14 14 15 14 14 14 14 14 14 15 14 15 16 16 16 17 15 15 15 16 16 15 18 18 17 20 21 20 20 22 23 23 22 22 23 23 22 22 22 23
6 6 6 6 7 7 8 9 9 10 10 11 11 11 12 13 13 13 13 13 13 13 13 12 12 12 12 13 13 13 14 13 13 13 14 14 14 14 14 13 13 13 13 13 13 13 13 13 13 13 14 13 14 14 14 14 14 15 15 15 15 15 16 16 14 13 14 16 15 15 18 19 17 20 22 21 21 22 23 23 23 23 23 23 22 22 22 22
6 6 7 7 8 8 9 10 10 11 11 11 11 12 12 13 13 12 12 12 13 13 12 12 12 12 13 14 13 13 14 13 13 14 14 13 13 13 14 14 13 13 13 13 12 13 13 13 12 13 13 13 13 13 14 15 14 14 15 16 15 15 16 16 15 14 14 16 16 15 18 20 18 20 21 20 21 21 23 25 24 24 23 23 22 22 21 21
6 7 7 8 9 9 10 11 11 11 11 12 12 12 13 12 12 12 11 11 12 12 12 12 12 12 13 13 13 13 13 13 13 14 14 13 12 13 14 14 13 12 13 13 12 13 13 12 12 13 13 13 12 12 13 14 15 15 15 16 16 15 16 16 16 15 15 16 17 17 19 20 19 20 20 19 22 23 25 26 24 23 22 21 20 20 20 19
7 8 8 9 10 10 11 11 11 11 12 12 12 13 13 12 12 11 11 11 11 12 12 12 12 12 13 13 12 13 13 13 14 14 13 12 12 12 13 13 12 13 13 13 13 13 13 12 13 13 12 13 12 12 13 15 15 14 14 15 16 16 16 17 17 17 16 17 19 19 20 22 22 23 23 22 24 26 26 25 22 20 19 17 17 17 17 17
8 8 9 10 11 11 12 12 12 12 13 13 13 14 13 11 11 11 11 11 12 12 12 12 12 12 12 12 12 13 14 14 14 14 13 12 12 12 13 12 12 13 12 12 13 12 13 13 12 13 13 13 13 12 13 15 14 14 15 16 17 17 17 18 19 18 18 18 20 20 21 23 23 23 24 24 24 24 23 21 19 18 16 15 14 14 15 16
9 9 10 11 12 12 13 13 13 13 14 14 13 13 11 11 11 10 10 12 13 12 11 12 12 12 13 13 13 14 14 14 13 12 12 12 12 13 12 12 12 12 12 12 13 13 13 13 12 13 14 14 14 13 15 16 15 16 16 16 17 19 19 19 20 20 18 19 20 21 22 22 22 23 24 25 22 20 19 18 18 17 15 14 13 14 14 15
9 10 11 12 13 13 14 14 14 14 14 14 13 12 11 11 11 11 12 13 12 12 12 13 12 12 13 13 13 13 13 12 12 12 12 12 13 12 12 12 12 11 12 13 13 13 12 13 14 14 15 16 16 15 16 17 16 16 17 17 19 20 20 20 20 21 19 19 21 20 20 22 22 23 24 22 19 18 18 17 16 15 13 13 12 13 14 15
10 11 12 13 13 14 15 15 14 14 14 13 13 12 10 11 11 12 13 13 12 13 13 13 12 12 12 12 12 12 11 11 11 11 12 12 12 11 11 11 11 11 13 13 13 13 12 13 15 16 16 16 16 16 16 16 16 17 18 19 20 20 21 20 19 20 19 18 20 18 19 21 22 23 23 20 18 19 18 15 15 13 12 13 12 13 15 16
11 12 13 14 14 15 15 15 14 14 14 13 13 11 10 10 11 12 13 13 14 13 12 12 11 11 11 11 11 10 10 10 11 11 12 12 11 11 11 11 10 12 13 12 12 13 13 14 16 15 14 14 15 15 14 15 16 17 17 19 20 20 21 20 19 20 19 18 20 19 18 20 21 21 21 19 17 17 16 14 14 13 12 13 13 14 15 16
12 13 14 15 15 16 16 15 14 14 14 13 12 11 11 11 11 12 12 12 14 13 11 11 10 10 10 10 10 10 10 10 10 11 12 12 11 11 11 10 11 11 12 11 11 12 13 14 15 14 13 13 15 15 14 15 17 17 17 18 20 19 19 19 19 20 19 19 20 19 19 20 20 19 18 18 16 15 14 13 13 12 12 13 14 14 15 15
13 13 14 15 16 16 16 15 14 14 14 13 12 11 12 11 11 12 12 12 12 11 10 9 9 9 9 9 9 10 10 10 10 11 12 12 11 11 11 10 10 11 12 12 11 12 14 14 13 12 12 13 15 15 15 16 17 18 18 18 19 19 18 19 19 20 20 20 20 18 18 19 19 17 17 17 16 15 14 13 13 13 12 13 13 14 15 16
13 14 15 16 16 17 16 14 13 14 14 13 12 12 12 12 12 12 12 12 11 11 9 9 8 8 9 9 10 10 11 11 10 11 12 12 11 11 11 10 10 11 13 12 11 13 14 14 13 12 12 12 13 15 15 16 17 18 18 17 17 17 18 18 19 19 19 19 19 17 17 18 18 17 17 18 17 16 16 14 14 14 13 13 14 15 16 17
14 14 15 16 17 17 15 13 14 14 13 13 13 13 12 12 12 12 12 10 9 10 9 8 8 9 10 10 11 12 11 11 11 12 12 11 11 10 11 11 11 11 12 12 12 13 13 12 12 11 12 12 13 15 16 15 15 17 17 16 15 16 17 18 19 19 19 19 19 18 17 18 18 17 18 18 16 16 16 15 15 14 14 14 15 16 17 18
14 15 16 16 17 16 14 14 15 14 13 13 13 13 13 12 12 12 11 9 8 9 8 9 9 9 10 12 12 12 11 12 12 12 11 11 12 11 11 12 11 11 12 11 12 13 12 12 13 12 12 13 14 15 16 14 14 16 16 14 15 17 18 19 18 19 20 20 21 20 17 17 17 17 17 17 16 16 16 16 16 15 14 15 16 17 18 19
15 15 16 16 16 16 14 14 14 14 13 13 13 13 13 12 12 11 9 8 8 8 8 9 9 9 12 13 13 11 12 13 11 11 12 12 12 11 11 11 11 12 12 11 13 14 13 13 13 12 12 14 15 15 15 13 14 16 16 15 17 18 19 19 18 20 20 20 20 19 16 16 17 16 17 17 16 16 16 16 16 16 15 16 17 18 19 20
15 15 16 16 16 15 15 14 14 14 14 13 13 13 13 12 12 10 8 7 8 8 8 9 10 11 14 14 12 11 12 11 10 11 12 11 11 11 11 11 11 12 13 11 13 14 13 13 13 12 13 14 15 15 14 13 15 17 16 16 18 18 19 19 18 19 19 18 18 18 17 16 16 16 17 17 17 17 17 17 17 17 17 18 19 20 20 21
15 15 16 16 15 15 15 14 14 14 14 13 13 13 12 11 10 8 7 7 8 9 9 10 11 12 14 13 12 12 11 11 11 12 12 11 12 12 11 12 11 11 12 12 12 13 13 13 13 12 13 13 14 14 14 14 17 17 16 18 19 19 19 19 18 17 16 17 18 18 17 15 16 17 18 19 18 17 17 17 18 18 18 19 20 21 21 22
15 16 16 16 15 15 14 14 15 14 14 14 13 12 11 10 9 6 7 8 9 9 10 11 12 12 13 11 11 12 11 11 12 12 12 12 12 13 12 12 12 11 12 12 12 13 13 13 13 13 13 13 13 14 15 16 17 16 17 19 19 19 18 18 18 16 15 17 18 17 16 15 16 17 18 19 18 18 18 18 18 18 18 20 21 21 22 22
16 16 16 15 15 14 14 14 15 14 14 13 12 11 10 9 8 7 8 10 9 10 11 12 12 13 12 11 10 11 11 12 12 11 12 12 12 12 12 11 12 12 12 12 13 13 13 13 13 13 13 13 13 15 17 17 17 17 18 18 17 18 17 17 17 16 16 17 16 16 16 16 16 17 18 18 18 19 19 18 18 18 19 20 21 22 23 24
16 16 15 15 14 14 14 14 14 13 13 12 11 10 8 7 8 8 9 10 10 11 11 11 12 12 11 11 11 12 11 12 12 12 12 12 11 12 12 12 11 12 12 13 13 13 13 14 14 13 14 14 15 16 17 17 18 19 17 16 16 16 16 18 18 17 17 18 17 18 18 16 16 16 17 17 17 17 16 16 17 17 19 21 22 23 24 26
16 15 14 14 13 14 14 14 14 13 12 11 10 9 8 7 8 8 10 10 10 12 11 11 12 12 10 10 11 12 12 12 13 13 13 12 12 13 13 14 13 12 13 13 13 13 13 14 14 14 15 17 17 16 16 17 19 18 16 15 16 15 15 18 18 17 18 19 19 20 17 15 15 15 15 16 16 15 15 16 17 18 20 22 24 25 26 28
15 14 13 13 13 14 14 13 13 12 11 10 9 8 7 7 8 8 9 10 11 12 12 11 11 11 11 11 12 12 12 13 13 13 13 13 12 13 13 14 15 13 13 13 15 14 14 15 16 16 17 17 17 17 17 18 18 17 17 16 17 17 16 17 18 17 17 18 19 17 15 15 14 14 15 16 15 16 17 18 19 20 22 23 25 26 28 30
14 13 13 12 13 13 13 13 12 11 10 8 8 7 7 7 8 8 9 10 10 11 12 12 11 10 12 12 13 13 13 13 14 14 13 13 13 13 13 14 15 14 13 14 15 15 15 17 18 17 17 16 16 18 18 18 17 17 17 17 18 17 16 16 18 18 16 17 17 15 13 14 13 14 16 16 16 18 19 20 21 22 23 25 26 28 30 32
13 12 12 12 13 13 12 12 11 10 9 7 7 7 7 8 8 8 9 10 10 10 11 11 11 11 12 13 14 14 14 14 14 14 14 14 13 13 15 15 15 14 15 16 16 16 16 18 19 17 16 17 17 18 19 18 17 16 17 18 18 17 15 15 16 17 16 16 17 15 13 15 15 16 17 17 18 20 20 21 23 23 24 26 27 29 33 34
13 12 11 12 13 12 11 10 10 9 8 7 7 7 7 8 8 9 10 10 11 11 10 11 12 11 12 13 14 15 15 14 15 15 14 14 14 14 15 16 16 16 17 17 17 18 17 19 19 17 16 18 19 18 18 18 17 16 17 17 16 16 16 15 15 16 16 17 18 17 15 15 17 18 18 18 19 21 22 23 24 25 27 28 30 32 35 35
12 11 10 12 12 11 10 10 9 8 8 8 7 7 8 9 9 10 10 10 10 11 11 11 12 13 13 13 14 15 15 15 16 16 15 15 15 15 15 16 17 18 19 18 17 18 18 18 18 18 17 19 19 18 18 18 18 16 16 16 15 14 14 15 16 16 16 17 17 17 17 16 18 18 18 19 20 22 23 25 26 28 30 31 32 35 37 36
11 9 10 11 12 11 10 9 8 8 8 7 7 8 9 9 10 10 10 11 11 11 12 12 12 14 14 15 15 16 16 16 16 16 15 16 17 16 16 17 18 20 20 18 17 18 18 17 18 19 18 18 18 17 16 15 16 15 15 15 16 15 16 16 17 17 16 16 16 17 18 17 18 18 18 19 21 22 24 26 28 30 32 32 34 38 39 37
10 9 10 11 12 11 9 8 8 8 7 8 8 9 10 9 10 11 11 11 11 12 12 12 13 14 15 16 16 17 17 17 17 16 16 17 17 17 17 17 18 19 19 18 17 17 17 16 17 18 18 17 17 17 14 13 14 14 14 15 15 16 17 17 18 18 16 16 16 17 18 18 18 19 19 20 21 23 26 28 30 32 33 34 37 39 39 38
9 8 9 11 12 10 8 8 8 8 8 8 9 9 10 10 10 11 12 12 12 13 13 14 14 15 15 16 17 17 17 17 17 16 16 16 16 16 17 16 16 16 16 16 16 16 15 14 15 17 17 17 17 16 13 12 14 14 15 16 16 16 16 15 17 19 18 18 18 17 18 18 18 18 19 21 23 25 28 30 32 33 34 37 40 40 39 40
8 8 9 11 12 9 7 8 10 10 9 9 9 9 10 10 10 11 12 13 13 14 15 15 15 15 16 16 17 16 16 15 14 14 14 14 14 14 15 15 15 15 15 15 15 15 15 14 15 16 16 16 16 15 13 13 15 16 18 18 17 17 17 16 17 18 18 19 18 17 18 18 18 18 19 23 26 27 30 32 33 35 36 39 40 39 40 42
8 8 9 11 12 9 7 8 9 10 10 10 10 10 10 11 11 12 13 14 14 14 15 15 15 16 16 15 15 14 14 13 13 13 13 13 13 14 14 15 15 15 15 15 14 15 15 14 14 16 16 15 15 15 15 17 18 18 19 19 18 17 18 18 18 17 17 17 16 16 18 19 18 19 21 25 28 29 31 33 34 36 39 40 40 40 41 43
8 8 9 11 11 9 7 8 8 9 10 10 10 11 11 12 12 13 13 14 15 14 14 15 15 15 15 14 13 13 13 13 13 13 13 14 14 14 15 16 16 15 15 15 15 15 15 14 14 14 14 15 16 17 18 19 19 19 19 19 19 18 18 18 17 16 16 17 18 17 19 20 20 23 26 28 30 31 33 35 36 37 39 41 40 41 42 43
8 8 9 11 11 9 9 9 9 9 9 9 10 11 12 12 13 14 14 15 15 15 14 15 14 14 13 13 13 14 14 14 14 14 14 15 15 15 16 16 16 15 15 15 15 14 14 15 15 14 14 15 17 18 19 19 19 18 18 19 19 19 18 17 16 16 16 18 20 19 20 23 24 26 29 30 32 34 36 38 38 38 40 41 40 41 43 44
9 9 9 10 10 10 10 11 10 10 10 10 10 12 13 13 15 15 14 14 14 14 14 13 13 13 12 13 13 14 15 15 15 15 15 15 16 16 16 16 15 15 15 15 15 14 15 16 16 15 16 17 18 18 18 17 17 16 16 17 18 18 18 16 15 17 17 18 20 21 23 26 27 28 30 33 34 35 37 38 39 40 42 42 41 43 44 46
9 8 9 9 10 10 10 11 11 10 11 11 11 12 14 14 15 15 14 14 14 14 13 13 13 13 13 13 14 14 16 16 16 15 15 15 16 16 16 15 15 15 16 16 16 15 15 16 16 16 17 19 18 16 15 15 15 15 15 16 17 17 17 16 16 18 18 19 22 24 26 28 28 30 32 35 36 37 38 39 40 42 43 42 43 45 46 48
9 8 9 10 9 9 10 11 11 10 11 12 12 13 14 14 15 14 13 14 14 13 12 12 13 14 14 14 14 14 16 16 16 16 15 15 16 16 16 16 16 17 17 16 17 16 15 16 16 16 17 18 17 15 14 14 15 15 16 16 17 17 17 17 18 20 21 22 24 26 28 29 29 31 34 35 36 37 38 40 42 44 43 42 44 46 47 49
9 9 10 10 10 10 11 11 11 11 13 13 13 14 13 13 14 14 13 12 13 13 12 12 14 15 15 14 14 14 15 15 16 16 15 16 17 16 16 16 16 17 17 16 17 16 16 16 17 16 16 16 16 16 15 14 14 15 17 17 18 18 19 20 21 22 23 25 26 27 29 30 30 32 35 35 36 38 39 42 44 43 42 43 45 47 49 51
10 10 10 9 10 12 12 12 12 12 13 14 13 13 13 13 13 13 12 12 11 12 12 13 15 15 15 15 14 15 16 15 16 16 16 16 17 17 17 16 15 17 17 16 16 17 17 17 17 16 15 16 16 15 16 16 16 16 18 19 20 20 21 22 23 24 25 26 28 29 30 31 32 34 35 35 37 39 41 44 45 43 43 45 47 49 52 52
11 11 11 10 11 13 13 13 13 12 13 13 13 13 13 13 13 12 12 12 12 12 13 14 14 15 16 16 15 16 16 16 16 17 17 17 17 17 16 15 14 15 16 16 16 17 17 16 17 16 15 16 17 17 17 17 18 19 19 21 21 20 22 24 24 24 26 26 28 30 31 32 33 35 36 37 39 41 42 45 45 44 44 46 48 51 53 53
Wind_Direction
302 297 294 293 293 293 292 293 294 295 297 299 302 305 305 306 306 303 300 298 294 289 285 285 287 287 288 288 287 287 285 277 271 269 266 267 271 277 279 278 277 278 275 270 269 270 274 276 278 280 275 269 265 265 263 259 256 259 259 258 260 259 257 257 260 265 268 271 268 265 260 260 270 271 272 277 277 277 275 272 273 275 275 276 277 277 272 265
303 299 297 295 294 294 293 294 295 297 300 302 305 306 308 309 308 304 299 297 294 290 288 289 290 290 290 289 286 286 285 276 271 269 266 270 275 278 279 279 278 276 273 269 268 269 271 274 279 282 277 270 267 265 264 261 257 258 259 260 260 258 258 258 258 262 266 269 264 263 262 261 267 269 270 276 277 276 276 276 276 276 276 276 276 273 268 264
304 300 298 297 297 297 296 297 299 301 303 305 306 308 311 313 311 307 301 297 295 292 291 292 294 295 295 291 286 287 285 277 273 270 269 274 276 278 279 279 277 274 271 267 265 266 268 272 278 279 276 271 268 265 262 262 261 261 261 263 263 258 260 261 258 259 263 266 262 264 265 263 268 270 270 273 276 277 273 274 274 272 271 273 274 271 267 265
309 305 302 301 302 304 304 304 304 305 305 305 306 309 312 314 315 312 307 301 298 296 295 296 297 298 298 293 288 287 287 282 274 270 273 278 278 278 278 279 277 273 270 267 265 267 269 273 275 276 274 271 270 266 262 261 262 264 261 262 264 260 262 262 258 260 264 266 264 265 267 267 269 269 270 271 276 279 274 271 268 268 269 271 273 271 267 266
314 309 306 306 305 307 309 307 306 306 305 305 306 309 312 315 316 315 313 307 303 300 298 298 299 301 301 296 290 288 291 285 274 272 278 282 281 279 279 278 276 273 271 268 267 268 270 272 274 275 273 269 270 267 264 261 260 265 264 262 263 261 265 263 258 262 265 267 268 267 267 269 270 270 268 267 272 276 275 272 270 270 273 272 271 270 269 267
312 307 305 304 305 307 309 309 308 308 307 308 309 310 312 315 316 316 314 310 306 303 301 300 301 302 302 298 291 288 286 280 276 278 282 285 283 281 280 277 275 274 272 270 268 269 271 273 275 274 271 270 267 264 265 264 262 267 270 268 265 262 266 266 262 265 266 266 267 266 268 269 271 273 270 265 269 273 275 275 273 274 274 272 272 271 270 269
313 307 305 303 304 307 311 313 312 312 312 311 311 311 312 314 314 313 311 311 307 303 302 300 301 302 302 298 292 289 283 277 279 281 284 286 284 282 279 276 276 276 273 271 269 268 271 274 275 271 269 271 267 264 266 268 267 266 270 271 267 265 267 266 263 264 265 265 265 267 271 270 268 273 276 271 271 275 275 276 278 278 276 275 275 272 271 270
326 321 317 312 309 312 315 316 316 316 316 315 314 312 311 311 311 308 308 309 307 305 302 300 299 300 301 298 293 292 286 280 281 283 286 287 284 282 279 278 279 277 273 272 269 267 270 272 272 269 268 268 265 265 267 270 273 267 268 271 270 269 268 267 265 264 265 266 267 268 270 270 269 274 279 275 275 279 278 278 280 280 279 277 276 274 274 273
351 348 342 334 326 324 322 321 320 319 319 317 315 313 311 312 310 308 308 308 307 306 303 302 301 300 300 299 297 295 288 284 286 288 290 288 284 283 279 277 278 277 273 272 269 265 266 268 268 268 269 268 266 268 268 268 271 268 267 271 272 272 271 268 266 264 265 267 267 268 271 273 273 277 280 276 277 283 282 280 280 280 278 278 277 277 276 276
4 2 357 349 339 333 329 327 325 322 321 319 316 314 313 313 312 310 309 309 309 307 305 304 304 303 301 300 301 295 290 290 292 293 293 289 285 283 281 278 277 276 273 273 270 264 263 264 265 268 269 269 268 270 269 265 269 271 270 273 272 273 274 269 266 266 266 268 266 266 272 274 276 279 280 278 280 286 287 285 282 280 278 278 279 279 278 278
4 2 356 348 341 335 332 330 328 325 322 321 318 315 313 312 311 310 311 311 310 309 307 304 306 305 301 301 298 291 291 295 295 295 295 292 288 284 282 279 277 275 274 273 269 265 263 262 263 267 267 268 270 271 270 267 271 275 275 276 275 277 277 269 266 267 266 270 266 265 272 274 278 278 275 277 283 289 290 288 285 281 280 279 279 281 280 280
3 358 352 346 341 337 334 331 328 326 323 321 319 316 313 311 309 308 309 309 310 309 306 304 305 304 303 302 294 289 293 295 294 295 295 294 289 283 280 278 276 274 273 272 270 267 265 264 263 263 264 267 270 272 271 271 274 276 276 276 277 282 279 270 267 264 262 269 267 267 275 275 275 273 273 279 286 291 291 289 286 282 281 281 281 281 281 282
4 360 354 349 343 338 334 331 328 325 322 321 318 317 315 312 310 306 305 305 305 305 304 302 303 304 304 301 295 293 294 292 293 295 295 294 290 284 281 277 275 273 272 272 271 269 267 266 263 261 263 267 269 270 272 275 275 275 275 273 276 283 279 274 273 265 262 270 268 269 275 276 276 274 275 283 288 291 291 290 287 283 283 283 282 282 282 283
4 359 354 349 343 339 335 331 329 325 323 321 319 317 315 313 310 306 303 302 302 303 302 300 301 303 302 298 295 295 294 293 294 295 295 295 292 286 283 280 277 274 273 272 272 270 267 268 266 265 267 268 268 270 275 279 276 274 275 274 277 278 276 279 277 264 265 272 273 273 274 277 281 280 283 288 288 288 289 291 290 287 286 285 284 284 284 284
3 356 351 347 342 338 336 332 329 326 324 321 319 316 315 314 312 309 306 302 302 303 301 300 300 301 301 298 294 293 294 294 295 296 296 296 294 287 284 283 280 277 275 271 270 270 268 267 267 267 268 270 272 273 276 278 277 276 275 277 279 274 275 283 277 266 269 275 277 276 275 279 283 283 288 292 292 290 289 291 293 291 289 286 285 286 286 287
359 353 350 345 341 338 336 332 329 327 325 322 319 316 314 313 313 313 310 306 307 305 303 302 299 299 301 298 295 294 293 292 295 298 298 297 294 288 286 284 279 279 277 273 272 272 270 268 268 267 267 270 272 273 277 279 279 279 274 275 278 275 278 284 280 275 275 277 279 277 277 281 284 284 287 293 296 295 292 293 294 293 290 286 286 286 286 286
352 349 346 343 340 337 335 333 329 327 327 324 320 318 316 313 312 312 311 310 311 309 305 301 299 300 299 297 296 295 292 292 295 297 296 295 291 290 290 285 280 281 280 277 274 273 271 270 268 268 271 272 270 272 279 278 278 281 278 277 277 276 279 282 283 283 281 280 280 280 279 281 285 286 287 294 297 294 292 292 292 292 290 289 288 287 286 287
347 344 342 340 338 336 334 333 330 328 327 325 322 320 316 312 312 312 312 312 313 312 307 303 305 304 299 298 297 294 293 294 295 295 293 292 291 291 289 284 283 282 282 279 275 273 271 272 270 270 275 277 273 272 272 271 273 278 277 277 280 280 280 281 284 284 282 282 282 282 282 282 286 288 291 296 297 293 292 292 293 294 294 292 291 290 289 291
342 339 338 338 337 334 332 331 329 328 327 325 323 321 317 315 315 313 314 316 315 312 308 305 305 301 296 298 298 296 295 294 295 294 292 294 294 292 287 283 282 281 280 277 276 274 271 274 274 271 273 273 270 266 265 267 270 276 274 273 277 280 281 281 283 284 282 283 282 280 282 285 288 290 294 298 297 295 295 295 297 298 298 295 294 292 292 294
338 336 335 336 335 332 331 329 328 327 326 325 324 323 320 319 317 311 314 317 313 309 306 303 302 299 298 299 299 300 299 296 295 294 295 298 296 293 289 285 285 283 278 273 274 275 273 274 272 268 267 267 267 265 266 269 271 276 275 274 277 278 282 285 285 287 286 283 284 284 286 289 291 293 296 298 300 301 299 300 300 299 297 295 294 294 294 294
334 333 333 333 333 331 330 328 326 326 325 324 324 324 318 318 316 310 312 313 308 309 306 301 299 299 299 299 302 305 305 301 298 296 298 301 298 293 289 288 288 284 279 273 275 279 277 275 271 266 265 265 268 269 270 272 272 276 276 277 281 280 282 285 285 289 290 286 287 291 293 294 294 296 298 301 302 301 299 299 299 296 294 292 292 293 292 292
331 330 331 331 331 330 328 326 324 324 324 323 325 325 318 316 315 311 312 310 307 310 307 302 300 299 300 301 304 309 309 306 303 300 301 305 301 294 289 291 286 280 282 279 280 285 281 276 272 269 268 270 274 275 275 278 276 278 279 281 283 283 285 287 287 289 291 287 287 292 295 295 296 297 300 303 301 299 300 299 296 293 292 291 290 291 291 293
328 328 330 331 330 329 328 325 322 323 323 322 323 323 319 316 315 315 315 311 308 309 308 304 301 301 304 305 306 311 311 308 305 302 306 307 303 297 291 289 285 282 286 281 276 281 280 278 276 275 275 275 279 282 281 284 283 279 280 282 283 286 288 286 288 290 290 288 287 291 295 292 294 298 300 302 300 300 302 300 297 294 293 292 291 291 292 293
326 327 328 330 330 329 328 325 322 324 322 321 322 320 317 316 317 317 316 312 309 307 306 303 302 302 304 305 308 312 310 305 303 303 310 310 303 299 293 288 288 286 284 278 273 276 278 281 283 283 283 278 280 285 284 282 285 283 279 280 283 286 284 282 287 291 291 291 289 292 295 291 293 296 296 297 299 299 299 299 298 296 294 294 294 294 293 292
324 325 326 328 329 328 327 324 324 324 321 321 320 317 318 318 317 317 316 315 309 305 305 307 308 306 305 308 308 309 307 305 303 304 311 311 303 301 297 292 292 289 285 283 282 281 282 285 286 285 288 286 282 284 282 278 283 287 282 279 279 282 285 287 292 294 294 292 290 293 295 291 292 294 292 294 295 295 296 297 296 295 295 295 294 294 293 294
322 323 325 327 328 327 325 322 323 323 321 320 317 316 319 318 318 317 317 317 306 302 308 310 310 309 309 312 310 309 309 305 305 307 310 310 304 301 298 296 295 291 287 288 289 287 287 291 291 285 286 291 288 284 282 279 284 288 284 282 282 285 290 292 293 293 291 288 289 292 290 285 289 291 289 290 291 292 293 294 294 293 293 292 291 292 293 296
321 322 324 326 327 327 324 320 322 322 321 319 317 317 318 318 319 317 317 319 307 302 307 307 310 312 311 313 313 310 306 304 307 308 309 308 305 302 298 296 297 294 293 295 294 290 289 295 297 293 291 291 289 286 283 283 286 286 285 288 289 290 291 290 291 290 287 289 293 293 285 282 286 285 284 286 290 292 292 291 291 290 290 290 291 293 294 297
320 320 322 324 325 326 324 320 321 322 319 318 318 318 318 317 318 316 319 315 304 305 307 306 309 311 313 315 316 311 303 306 309 304 308 310 306 306 301 295 292 292 295 295 290 289 292 294 292 291 293 292 287 285 283 286 289 286 286 290 291 290 289 288 289 289 290 293 294 292 287 285 286 280 281 287 289 289 288 287 287 287 289 290 293 295 297 299
318 319 321 323 322 324 324 321 321 321 319 319 320 318 317 318 316 318 319 305 302 309 307 309 310 310 317 320 316 312 308 309 308 302 308 311 307 308 302 296 294 293 295 293 286 289 295 292 287 287 291 289 285 285 284 287 292 291 290 292 295 296 294 293 292 290 294 294 290 289 287 287 288 282 282 288 287 283 282 283 285 286 289 293 296 298 299 302
317 318 321 322 322 322 322 321 321 321 320 321 320 317 318 318 319 322 315 301 306 311 307 311 312 312 322 323 314 314 313 309 309 308 310 311 310 311 304 299 301 298 299 300 292 291 296 294 291 292 291 287 287 289 289 290 293 296 297 298 300 300 298 297 295 294 297 294 288 288 285 285 290 286 285 287 284 280 279 282 286 288 292 298 301 301 301 303
316 318 320 321 321 321 321 320 320 321 320 321 319 319 319 317 320 323 307 302 308 312 314 315 314 317 324 320 310 313 315 311 313 315 314 313 313 314 312 306 308 308 305 306 301 298 303 301 295 295 294 293 293 294 297 298 298 299 301 301 300 299 299 299 298 298 296 292 290 289 285 287 291 288 287 288 284 282 280 281 285 288 293 300 303 302 302 303
316 317 318 319 319 321 321 319 320 322 321 321 320 320 320 318 317 311 304 309 311 312 315 313 314 319 320 316 311 311 313 312 314 317 313 312 313 312 313 308 307 311 308 304 305 305 304 298 296 297 297 297 297 298 301 302 303 304 302 302 301 300 301 299 296 296 292 288 290 293 292 293 293 287 285 288 288 288 287 286 286 289 296 301 303 303 303 305
316 316 317 318 319 320 321 319 321 322 321 321 320 320 326 322 309 303 306 311 312 312 314 313 315 318 317 317 315 312 312 310 313 316 311 311 313 310 311 310 309 310 305 302 306 309 306 299 299 301 299 299 300 300 300 300 304 304 300 300 300 299 301 297 294 296 295 290 291 295 296 293 290 286 284 288 292 294 295 293 291 294 299 302 303 303 305 306
318 318 317 318 319 319 320 321 321 322 321 321 321 322 326 317 304 309 311 307 310 315 317 317 317 319 319 316 312 314 316 311 314 317 313 313 315 311 310 312 313 311 307 306 306 305 303 298 298 300 299 301 303 299 296 299 303 299 294 298 298 294 294 293 291 292 293 293 294 296 296 287 283 286 287 289 293 297 299 297 296 298 301 303 305 304 305 306
320 320 319 320 321 320 321 321 321 322 321 321 326 328 323 310 306 313 312 308 314 318 317 318 321 323 320 314 312 317 317 311 314 318 316 314 311 308 309 309 310 311 310 308 305 303 300 294 296 300 300 301 301 298 299 304 302 296 296 301 298 293 292 292 291 290 291 297 297 296 295 288 283 286 287 290 296 301 302 302 302 303 304 306 305 304 305 306
322 322 321 322 323 322 323 322 322 324 322 324 333 329 315 309 312 314 313 315 319 319 320 323 326 324 318 314 315 319 317 311 313 316 314 312 308 307 307 305 306 309 309 307 305 303 301 298 300 303 302 300 299 299 303 303 299 297 300 299 295 295 295 294 296 297 299 299 295 293 292 288 285 285 286 290 295 298 300 302 302 302 304 305 304 305 307 307
323 321 321 324 326 326 324 323 324 325 326 331 334 322 311 314 317 315 317 319 318 320 325 324 320 319 316 314 315 317 317 313 312 314 312 309 308 307 308 306 304 307 308 307 304 301 300 299 301 302 299 299 299 302 304 302 299 300 299 296 298 301 299 297 298 302 304 299 294 293 286 279 282 285 287 292 296 296 297 299 300 301 303 304 304 306 307 306
322 320 321 325 328 328 325 324 326 327 330 336 331 320 317 320 320 319 319 321 318 322 327 320 316 318 317 315 313 313 316 315 313 314 311 308 308 308 308 306 303 307 311 309 304 302 301 301 302 300 297 300 303 304 304 303 301 300 297 297 301 300 298 299 299 299 300 297 295 297 291 284 287 287 288 293 297 298 298 299 300 302 304 305 305 307 308 306
323 322 322 326 330 329 327 326 327 330 336 337 327 320 321 320 319 320 320 321 321 323 324 317 317 320 318 315 314 313 315 314 312 312 310 307 308 308 309 306 303 307 311 308 303 302 303 301 300 299 299 302 305 305 304 303 303 304 303 303 302 297 294 296 297 296 296 296 295 297 296 293 292 291 290 294 297 299 300 301 302 304 306 306 307 308 308 307
325 324 322 327 333 331 328 330 333 337 338 332 322 319 322 320 318 319 320 320 321 322 321 318 318 319 317 316 315 313 314 312 309 309 307 307 308 308 308 307 305 307 309 308 304 304 305 300 297 300 304 306 305 305 303 301 303 306 307 307 304 301 299 298 297 296 296 295 294 294 295 293 294 295 294 296 299 301 303 303 304 305 306 308 308 309 308 307
328 327 322 327 334 331 331 336 336 336 333 328 325 322 323 321 319 321 322 321 321 321 320 318 317 317 316 317 315 312 313 312 310 308 307 308 310 307 307 307 306 307 309 310 309 307 306 302 299 303 308 308 303 302 301 299 301 304 306 307 303 301 302 300 299 299 298 296 294 294 294 292 294 297 297 299 302 305 307 306 305 306 307 309 310 309 308 308
333 328 321 329 333 329 332 334 328 330 331 328 326 323 322 323 322 322 323 324 323 322 322 320 318 316 316 315 314 313 314 313 310 310 309 308 310 308 308 309 309 309 311 312 311 309 308 307 305 305 306 305 302 302 302 302 304 307 310 309 306 304 303 300 297 298 300 299 296 296 295 293 293 295 299 303 306 308 309 308 307 308 308 309 310 308 308 309
331 323 322 332 332 329 335 331 325 330 329 322 321 321 322 324 323 323 324 325 323 322 322 320 318 318 317 317 318 318 318 317 314 315 315 313 314 314 313 315 316 314 315 314 313 313 312 311 310 308 309 309 307 306 305 306 310 312 312 311 309 306 304 300 296 297 299 300 299 298 297 294 292 295 302 307 307 308 309 309 309 308 308 309 309 308 309 310
326 322 325 334 336 333 332 327 324 325 322 321 325 325 323 323 323 324 323 323 322 322 322 320 319 320 320 321 324 323 324 326 325 324 324 321 320 320 319 320 320 317 317 316 314 315 313 310 312 313 314 315 313 311 309 308 311 311 310 311 310 309 310 305 302 302 301 301 303 300 298 298 298 300 305 308 307 306 308 309 309 309 310 310 309 309 311 311
329 327 325 334 342 343 331 322 322 323 322 325 327 325 325 324 324 324 321 321 321 321 320 320 321 323 324 326 329 329 330 331 327 328 328 324 322 322 321 321 319 317 317 314 314 315 313 310 312 313 310 309 307 306 305 306 308 309 310 312 312 311 312 307 304 305 302 303 306 302 300 302 304 305 305 306 307 307 308 311 311 310 312 311 310 310 311 311
333 331 327 330 339 345 337 328 329 327 323 326 326 324 325 324 322 322 322 321 322 322 321 322 324 327 329 332 332 330 330 329 327 328 328 323 320 320 321 321 320 318 316 316 316 317 316 314 313 309 303 302 302 303 304 306 308 309 311 314 314 312 312 311 309 306 303 305 306 302 302 304 305 307 308 309 310 310 310 312 311 311 312 311 310 311 311 312
335 331 328 328 331 336 337 335 335 331 324 325 325 323 324 323 322 323 322 321 323 325 324 326 329 330 330 332 332 327 326 328 328 327 326 323 320 320 321 321 321 319 318 318 317 319 320 316 314 311 306 303 303 305 309 312 312 310 311 315 316 315 317 318 312 305 306 308 304 302 307 309 307 310 312 311 311 311 311 312 312 312 312 311 311 312 313 313
336 331 330 330 327 327 330 331 333 334 331 327 324 323 324 324 324 323 322 323 326 328 328 329 331 330 327 327 329 327 326 329 329 326 325 324 323 324 324 322 321 322 321 320 318 319 319 314 313 313 310 309 310 310 316 319 316 314 315 315 316 317 318 317 309 306 308 307 304 307 311 310 309 312 313 312 311 311 312 313 313 312 312 312 313 314 314 315
340 335 331 333 329 325 326 327 329 334 333 329 325 324 325 325 324 323 323 327 329 329 331 329 326 327 326 325 328 328 327 329 328 325 325 326 324 325 325 321 320 321 322 321 319 319 318 315 314 315 314 316 318 317 318 319 316 316 317 315 314 314 315 313 309 308 310 308 308 311 312 309 311 314 314 313 312 313 313 313 313 313 314 314 315 316 316 316
341 335 331 334 334 330 329 327 328 330 329 327 326 325 324 324 324 324 327 331 329 328 331 329 324 325 327 328 330 329 326 326 324 321 324 326 324 323 322 318 317 320 324 322 319 320 321 317 316 318 317 317 319 321 321 319 317 318 318 315 315 315 314 312 310 310 311 311 311 313 312 309 312 315 314 313 313 314 314 314 314 314 315 316 317 317 317 317
340 335 333 335 332 330 329 327 328 329 327 327 327 325 326 326 325 326 326 327 326 325 328 326 325 327 330 332 333 328 324 325 323 319 321 323 321 320 320 318 317 320 323 322 320 322 324 320 319 323 320 313 315 320 318 316 317 318 318 316 316 317 315 312 311 313 313 312 313 314 313 312 313 315 315 314 315 315 316 316 315 316 317 318 318 319 318 317
337 334 333 333 328 327 327 326 328 330 327 326 327 326 327 328 328 329 328 326 325 325 325 325 325 327 329 330 328 324 323 323 321 320 322 322 321 321 321 322 323 323 321 321 322 323 324 322 320 322 319 312 313 315 313 314 315 313 314 315 313 315 317 313 312 315 315 314 314 314 314 313 315 316 315 315 316 317 317 317 316 317 319 319 320 320 318 317